Weather History for PASH - May, 2014

Change the Weather History Date:

Wednesday, May 7, 2014

  Actual Average Record
Temperature  
Mean Temperature 26 °F -  
Max Temperature 30 °F 27 °F 42 °F (2004)
Min Temperature 21 °F 17 °F -5 °F (2001)
Degree Days  
Heating Degree Days 40    
Moisture  
Dew Point 21 °F    
Average Humidity 79    
Maximum Humidity 93    
Minimum Humidity 64    
Precipitation  
Precipitation 0.00 in - - ()
Sea Level Pressure  
Sea Level Pressure 29.96 in    
Wind  
Wind Speed 4 mph (NNE)    
Max Wind Speed 7 mph    
Max Gust Speed -    
Visibility 10 miles    
Events      
Averages and records for this station are not official NWS values.
T = Trace of Precipitation, MM = Missing Value Source: NWS Daily Summary

Daily Weather History Graph

Daily Weather History Graph

Search for Another Location

Airport or City:

Trip Planner

Search our weather history database for the weather conditions in past years. The results will help you decide how hot, cold, wet, or windy it might be!

Date:

Astronomy

May. 07, 2014 Rise Set
Actual Time 5:54 AM AKDT 12:10 AM AKDT
Civil Twilight 4:05 AM AKDT 2:06 AM AKDT
Nautical Twilight Sun does not set Sun does not set
Astronomical Twilight Sun does not set Sun does not set
Moon 2:30 PM AKDT (5/7) 5:02 AM AKDT (5/7)
Length of Visible Light 22h 00m
Length of Day
18h 16m
First Quarter, 57% of the Moon is Illuminated
May 7
First Quarter
May 14
Full
May 21
Last Quarter
May 28
New
Jun 5
First Quarter

Hourly Weather History & Observations

Time (AKDT) Temp. Windchill Dew Point Humidity Pressure Visibility Wind Dir Wind Speed Gust Speed Precip Events Conditions
12:16 AM 26.6 °F 21.2 °F 21.2 °F 80% 29.88 in 10.0 mi NNW 4.6 mph - N/A   Overcast
12:36 AM 26.6 °F 20.0 °F 23.0 °F 86% 29.89 in 10.0 mi North 5.8 mph - N/A   Overcast
12:56 AM 26.6 °F 21.2 °F 24.8 °F 93% 29.89 in 10.0 mi North 4.6 mph - N/A   Overcast
1:16 AM 26.6 °F 21.2 °F 23.0 °F 86% 29.90 in 10.0 mi NNE 4.6 mph - N/A   Overcast
1:36 AM 26.6 °F 22.6 °F 23.0 °F 86% 29.90 in 10.0 mi NNE 3.5 mph - N/A   Overcast
1:56 AM 26.6 °F 19.1 °F 23.0 °F 86% 29.90 in 10.0 mi NNE 6.9 mph - N/A   Overcast
2:16 AM 26.6 °F 21.2 °F 23.0 °F 86% 29.90 in 10.0 mi NE 4.6 mph - N/A   Overcast
2:36 AM 26.6 °F 21.2 °F 21.2 °F 80% 29.90 in 10.0 mi NE 4.6 mph - N/A   Overcast
2:56 AM 26.6 °F 20.0 °F 21.2 °F 80% 29.90 in 10.0 mi NE 5.8 mph - N/A   Overcast
3:16 AM 26.6 °F 20.0 °F 21.2 °F 80% 29.90 in 10.0 mi NNE 5.8 mph - N/A   Overcast
3:36 AM 24.8 °F 19.1 °F 21.2 °F 86% 29.91 in 10.0 mi NE 4.6 mph - N/A   Overcast
3:56 AM 24.8 °F 20.5 °F 21.2 °F 86% 29.91 in 10.0 mi NE 3.5 mph - N/A   Overcast
4:16 AM 24.8 °F 19.1 °F 21.2 °F 86% 29.91 in 10.0 mi NE 4.6 mph - N/A   Overcast
4:36 AM 24.8 °F 17.9 °F 21.2 °F 86% 29.91 in 10.0 mi NNE 5.8 mph - N/A   Overcast
4:56 AM 23.0 °F 15.8 °F 19.4 °F 86% 29.92 in 10.0 mi NNE 5.8 mph - N/A   Mostly Cloudy
5:16 AM 21.2 °F 16.4 °F 19.4 °F 93% 29.92 in 10.0 mi NNE 3.5 mph - N/A   Overcast
5:36 AM 23.0 °F 17.0 °F 19.4 °F 86% 29.93 in 10.0 mi NNE 4.6 mph - N/A   Overcast
5:56 AM 24.8 °F 20.5 °F 19.4 °F 80% 29.93 in 10.0 mi NE 3.5 mph - N/A   Overcast
6:16 AM 24.8 °F - 21.2 °F 86% 29.93 in 10.0 mi Calm Calm - N/A   Overcast
6:36 AM 24.8 °F - 21.2 °F 86% 29.93 in 10.0 mi Calm Calm - N/A   Overcast
6:56 AM 24.8 °F 20.5 °F 21.2 °F 86% 29.93 in 10.0 mi ENE 3.5 mph - N/A   Overcast
7:16 AM 24.8 °F 20.5 °F 19.4 °F 80% 29.94 in 10.0 mi ENE 3.5 mph - N/A   Overcast
7:36 AM 24.8 °F 20.5 °F 19.4 °F 80% 29.94 in 10.0 mi East 3.5 mph - N/A   Overcast
7:56 AM 24.8 °F - 19.4 °F 80% 29.94 in 10.0 mi Calm Calm - N/A   Overcast
8:16 AM 24.8 °F - 19.4 °F 80% 29.94 in 10.0 mi Calm Calm - N/A   Overcast
8:36 AM 24.8 °F 20.5 °F 19.4 °F 80% 29.95 in 10.0 mi South 3.5 mph - N/A   Overcast
9:16 AM 23.0 °F 18.4 °F 19.4 °F 86% 29.95 in 10.0 mi SE 3.5 mph - N/A   Overcast
9:36 AM 24.8 °F - 21.2 °F 86% 29.96 in 10.0 mi Calm Calm - N/A   Overcast
9:56 AM 24.8 °F 20.5 °F 21.2 °F 86% 29.96 in 10.0 mi South 3.5 mph - N/A   Overcast
10:16 AM 24.8 °F 20.5 °F 21.2 °F 86% 29.96 in 10.0 mi South 3.5 mph - N/A   Overcast
10:36 AM 24.8 °F - 21.2 °F 86% 29.96 in 10.0 mi Calm Calm - N/A   Overcast
10:56 AM 24.8 °F - 19.4 °F 80% 29.96 in 10.0 mi Calm Calm - N/A   Overcast
11:16 AM 24.8 °F - 21.2 °F 86% 29.97 in 10.0 mi Calm Calm - N/A   Scattered Clouds
11:36 AM 26.6 °F - 21.2 °F 80% 29.97 in 10.0 mi Calm Calm - N/A   Partly Cloudy
11:56 AM 26.6 °F 22.6 °F 19.4 °F 74% 29.97 in 10.0 mi NW 3.5 mph - N/A   Clear
12:16 PM 26.6 °F 22.6 °F 21.2 °F 80% 29.97 in 10.0 mi WNW 3.5 mph - N/A   Clear
12:36 PM 26.6 °F 22.6 °F 19.4 °F 74% 29.97 in 10.0 mi NW 3.5 mph - N/A   Clear
12:56 PM 26.6 °F 22.6 °F 21.2 °F 80% 29.98 in 10.0 mi NW 3.5 mph - N/A   Clear
1:16 PM 26.6 °F 22.6 °F 19.4 °F 74% 29.98 in 10.0 mi NNW 3.5 mph - N/A   Clear
1:36 PM 26.6 °F 22.6 °F 21.2 °F 80% 29.98 in 10.0 mi NW 3.5 mph - N/A   Clear
1:56 PM 28.4 °F 23.3 °F 21.2 °F 74% 29.98 in 10.0 mi NNW 4.6 mph - N/A   Scattered Clouds
2:16 PM 28.4 °F 24.6 °F 21.2 °F 74% 29.98 in 10.0 mi North 3.5 mph - N/A   Overcast
2:36 PM 28.4 °F - 21.2 °F 74% 29.99 in 10.0 mi Calm Calm - N/A   Overcast
2:56 PM 28.4 °F 24.6 °F 21.2 °F 74% 29.99 in 10.0 mi North 3.5 mph - N/A   Overcast
3:16 PM 28.4 °F - 21.2 °F 74% 29.99 in 10.0 mi Calm Calm - N/A   Overcast
3:36 PM 30.2 °F - 19.4 °F 64% 29.99 in 10.0 mi Calm Calm - N/A   Overcast
3:56 PM 28.4 °F 24.6 °F 21.2 °F 74% 29.99 in 10.0 mi NNE 3.5 mph - N/A   Overcast
4:16 PM 28.4 °F 22.2 °F 21.2 °F 74% 29.99 in 10.0 mi North 5.8 mph - N/A   Overcast
4:36 PM 30.2 °F 25.4 °F 21.2 °F 69% 29.99 in 10.0 mi NNE 4.6 mph - N/A   Overcast
4:56 PM 28.4 °F 23.3 °F 19.4 °F 69% 29.99 in 10.0 mi NNE 4.6 mph - N/A   Overcast
5:16 PM 30.2 °F 25.4 °F 21.2 °F 69% 29.99 in 10.0 mi NNE 4.6 mph - N/A   Scattered Clouds
5:36 PM 30.2 °F 25.4 °F 21.2 °F 69% 29.99 in 10.0 mi NNE 4.6 mph - N/A   Mostly Cloudy
5:56 PM 28.4 °F 22.2 °F 21.2 °F 74% 29.99 in 10.0 mi NNE 5.8 mph - N/A   Overcast
6:16 PM 28.4 °F 22.2 °F 21.2 °F 74% 29.99 in 10.0 mi NNE 5.8 mph - N/A   Overcast
6:36 PM 28.4 °F 22.2 °F 21.2 °F 74% 30.00 in 10.0 mi NNE 5.8 mph - N/A   Overcast
6:56 PM 28.4 °F 22.2 °F 21.2 °F 74% 30.00 in 10.0 mi NNE 5.8 mph - N/A   Overcast
7:16 PM 28.4 °F 21.2 °F 19.4 °F 69% 30.00 in 10.0 mi NNE 6.9 mph - N/A   Overcast
7:36 PM 28.4 °F 22.2 °F 21.2 °F 74% 30.00 in 10.0 mi NE 5.8 mph - N/A   Overcast
7:56 PM 28.4 °F 22.2 °F 21.2 °F 74% 30.00 in 10.0 mi NE 5.8 mph - N/A   Overcast
8:16 PM 28.4 °F 21.2 °F 21.2 °F 74% 29.99 in 10.0 mi NE 6.9 mph - N/A   Overcast
8:36 PM 28.4 °F 22.2 °F 21.2 °F 74% 29.99 in 10.0 mi NE 5.8 mph - N/A   Overcast
8:56 PM 26.6 °F 19.1 °F 21.2 °F 80% 29.99 in 10.0 mi NE 6.9 mph - N/A   Overcast
9:16 PM 26.6 °F 19.1 °F 21.2 °F 80% 29.98 in 10.0 mi NE 6.9 mph - N/A   Overcast
9:36 PM 26.6 °F 19.1 °F 21.2 °F 80% 29.98 in 10.0 mi NE 6.9 mph - N/A   Scattered Clouds
9:56 PM 26.6 °F 19.1 °F 21.2 °F 80% 29.99 in 10.0 mi ENE 6.9 mph - N/A   Clear
10:16 PM 26.6 °F 19.1 °F 21.2 °F 80% 29.99 in 10.0 mi ENE 6.9 mph - N/A   Partly Cloudy
10:36 PM 26.6 °F 19.1 °F 21.2 °F 80% 29.99 in 10.0 mi ENE 6.9 mph - N/A   Mostly Cloudy
10:56 PM 26.6 °F 20.0 °F 19.4 °F 74% 29.99 in 10.0 mi ENE 5.8 mph - N/A   Overcast
11:16 PM 26.6 °F 20.0 °F 21.2 °F 80% 29.99 in 10.0 mi NE 5.8 mph - N/A   Mostly Cloudy
11:36 PM 26.6 °F 20.0 °F 21.2 °F 80% 29.99 in 10.0 mi ENE 5.8 mph - N/A   Overcast
11:56 PM 26.6 °F 20.0 °F 21.2 °F 80% 29.99 in 10.0 mi ENE 5.8 mph - N/A   Overcast